Year,Month,Day,Hour,Minute,Value (Times are PST for temperature in C)
2015,02,23,00,00,3.30
2015,02,23,00,01,3.30
2015,02,23,00,02,3.30
2015,02,23,00,03,3.30
2015,02,23,00,04,3.30
2015,02,23,00,05,3.30
2015,02,23,00,06,3.30
2015,02,23,00,07,3.30
2015,02,23,00,08,3.30
2015,02,23,00,09,3.30
2015,02,23,00,10,3.30
2015,02,23,00,11,3.30
2015,02,23,00,12,3.30
2015,02,23,00,13,3.30
2015,02,23,00,14,3.30
2015,02,23,00,15,3.30
2015,02,23,00,16,3.30
2015,02,23,00,17,3.30
2015,02,23,00,18,3.30
2015,02,23,00,19,3.30
2015,02,23,00,20,3.30
2015,02,23,00,21,3.30
2015,02,23,00,22,3.20
2015,02,23,00,23,3.20
2015,02,23,00,24,3.20
2015,02,23,00,25,3.20
2015,02,23,00,26,3.20
2015,02,23,00,27,3.20
2015,02,23,00,28,3.20
2015,02,23,00,29,3.20
2015,02,23,00,30,3.10
2015,02,23,00,31,3.10
2015,02,23,00,32,3.10
2015,02,23,00,33,3.10
2015,02,23,00,34,3.10
2015,02,23,00,35,3.20
2015,02,23,00,36,3.30
2015,02,23,00,37,3.30
2015,02,23,00,38,3.30
2015,02,23,00,39,3.30
2015,02,23,00,40,3.30
2015,02,23,00,41,3.20
2015,02,23,00,42,3.10
2015,02,23,00,43,3.10
2015,02,23,00,44,3.10
2015,02,23,00,45,3.20
2015,02,23,00,46,3.20
2015,02,23,00,47,3.30
2015,02,23,00,48,3.20
2015,02,23,00,49,3.20
2015,02,23,00,50,3.20
2015,02,23,00,51,3.10
2015,02,23,00,52,3.10
2015,02,23,00,53,3.10
2015,02,23,00,54,3.10
2015,02,23,00,55,3.00
2015,02,23,00,56,3.00
2015,02,23,00,57,3.10
2015,02,23,00,58,3.10
2015,02,23,00,59,3.10
2015,02,23,01,00,3.10
2015,02,23,01,01,3.10
2015,02,23,01,02,3.10
2015,02,23,01,03,3.10
2015,02,23,01,04,3.20
2015,02,23,01,05,3.20
2015,02,23,01,06,3.20
2015,02,23,01,07,3.20
2015,02,23,01,08,3.20
2015,02,23,01,09,3.20
2015,02,23,01,10,3.20
2015,02,23,01,11,3.20
2015,02,23,01,12,3.20
2015,02,23,01,13,3.20
2015,02,23,01,14,3.20
2015,02,23,01,15,3.10
2015,02,23,01,16,3.10
2015,02,23,01,17,3.10
2015,02,23,01,18,3.10
2015,02,23,01,19,3.10
2015,02,23,01,20,3.10
2015,02,23,01,21,3.10
2015,02,23,01,22,3.00
2015,02,23,01,23,2.90
2015,02,23,01,24,2.90
2015,02,23,01,25,2.90
2015,02,23,01,26,2.90
2015,02,23,01,27,2.90
2015,02,23,01,28,2.90
2015,02,23,01,29,2.90
2015,02,23,01,30,2.90
2015,02,23,01,31,2.90
2015,02,23,01,32,2.90
2015,02,23,01,33,2.90
2015,02,23,01,34,2.90
2015,02,23,01,35,2.90
2015,02,23,01,36,3.00
2015,02,23,01,37,2.90
2015,02,23,01,38,2.90
2015,02,23,01,39,2.90
2015,02,23,01,40,2.80
2015,02,23,01,41,2.70
2015,02,23,01,42,2.70
2015,02,23,01,43,2.60
2015,02,23,01,44,2.60
2015,02,23,01,45,2.60
2015,02,23,01,46,2.60
2015,02,23,01,47,2.50
2015,02,23,01,48,2.50
2015,02,23,01,49,2.50
2015,02,23,01,50,2.50
2015,02,23,01,51,2.50
2015,02,23,01,52,2.50
2015,02,23,01,53,2.50
2015,02,23,01,54,2.50
2015,02,23,01,55,2.50
2015,02,23,01,56,2.50
2015,02,23,01,57,2.50
2015,02,23,01,58,2.50
2015,02,23,01,59,2.50
2015,02,23,02,00,2.50
2015,02,23,02,01,2.50
2015,02,23,02,02,2.50
2015,02,23,02,03,2.40
2015,02,23,02,04,2.50
2015,02,23,02,05,2.40
2015,02,23,02,06,2.40
2015,02,23,02,07,2.40
2015,02,23,02,08,2.40
2015,02,23,02,09,2.30
2015,02,23,02,10,2.30
2015,02,23,02,11,2.30
2015,02,23,02,12,2.20
2015,02,23,02,13,2.20
2015,02,23,02,14,2.20
2015,02,23,02,15,2.20
2015,02,23,02,16,2.20
2015,02,23,02,17,2.20
2015,02,23,02,18,2.20
2015,02,23,02,19,2.20
2015,02,23,02,20,2.10
2015,02,23,02,21,2.10
2015,02,23,02,22,2.10
2015,02,23,02,23,2.00
2015,02,23,02,24,2.00
2015,02,23,02,25,2.00
2015,02,23,02,26,2.00
2015,02,23,02,27,2.10
2015,02,23,02,28,2.10
2015,02,23,02,29,2.10
2015,02,23,02,30,2.10
2015,02,23,02,31,2.10
2015,02,23,02,32,2.10
2015,02,23,02,33,2.00
2015,02,23,02,34,2.00
2015,02,23,02,35,1.90
2015,02,23,02,36,1.90
2015,02,23,02,37,1.80
2015,02,23,02,38,1.80
2015,02,23,02,39,1.80
2015,02,23,02,40,1.80
2015,02,23,02,41,1.90
2015,02,23,02,42,2.00
2015,02,23,02,43,2.00
2015,02,23,02,44,2.10
2015,02,23,02,45,2.10
2015,02,23,02,46,2.10
2015,02,23,02,47,2.10
2015,02,23,02,48,2.10
2015,02,23,02,49,2.10
2015,02,23,02,50,2.10
2015,02,23,02,51,2.00
2015,02,23,02,52,2.00
2015,02,23,02,53,2.00
2015,02,23,02,54,2.00
2015,02,23,02,55,2.00
2015,02,23,02,56,2.00
2015,02,23,02,57,1.90
2015,02,23,02,58,1.90
2015,02,23,02,59,1.90
2015,02,23,03,00,2.00
2015,02,23,03,01,1.90
2015,02,23,03,02,1.90
2015,02,23,03,03,1.90
2015,02,23,03,04,1.90
2015,02,23,03,05,1.90
2015,02,23,03,06,2.00
2015,02,23,03,07,2.00
2015,02,23,03,08,2.00
2015,02,23,03,09,2.00
2015,02,23,03,10,2.00
2015,02,23,03,11,1.90
2015,02,23,03,12,1.90
2015,02,23,03,13,1.90
2015,02,23,03,14,1.90
2015,02,23,03,15,1.80
2015,02,23,03,16,1.80
2015,02,23,03,17,1.80
2015,02,23,03,18,1.80
2015,02,23,03,19,1.80
2015,02,23,03,20,1.90
2015,02,23,03,21,1.90
2015,02,23,03,22,2.00
2015,02,23,03,23,2.00
2015,02,23,03,24,2.00
2015,02,23,03,25,2.00
2015,02,23,03,26,1.90
2015,02,23,03,27,1.90
2015,02,23,03,28,1.90
2015,02,23,03,29,1.80
2015,02,23,03,30,1.80
2015,02,23,03,31,1.80
2015,02,23,03,32,1.70
2015,02,23,03,33,1.60
2015,02,23,03,34,1.60
2015,02,23,03,35,1.50
2015,02,23,03,36,1.50
2015,02,23,03,37,1.40
2015,02,23,03,38,1.40
2015,02,23,03,39,1.30
2015,02,23,03,40,1.30
2015,02,23,03,41,1.30
2015,02,23,03,42,1.40
2015,02,23,03,43,1.40
2015,02,23,03,44,1.40
2015,02,23,03,45,1.50
2015,02,23,03,46,1.50
2015,02,23,03,47,1.50
2015,02,23,03,48,1.50
2015,02,23,03,49,1.50
2015,02,23,03,50,1.50
2015,02,23,03,51,1.50
2015,02,23,03,52,1.60
2015,02,23,03,53,1.50
2015,02,23,03,54,1.50
2015,02,23,03,55,1.50
2015,02,23,03,56,1.40
2015,02,23,03,57,1.40
2015,02,23,03,58,1.30
2015,02,23,03,59,1.30
2015,02,23,04,00,1.30
2015,02,23,04,01,1.30
2015,02,23,04,02,1.20
2015,02,23,04,03,1.20
2015,02,23,04,04,1.20
2015,02,23,04,05,1.20
2015,02,23,04,06,1.10
2015,02,23,04,07,1.10
2015,02,23,04,08,1.00
2015,02,23,04,09,1.00
2015,02,23,04,10,1.00
2015,02,23,04,11,1.00
2015,02,23,04,12,1.00
2015,02,23,04,13,0.90
2015,02,23,04,14,0.90
2015,02,23,04,15,0.90
2015,02,23,04,16,0.90
2015,02,23,04,17,0.80
2015,02,23,04,18,0.80
2015,02,23,04,19,0.80
2015,02,23,04,20,0.80
2015,02,23,04,21,0.80
2015,02,23,04,22,0.90
2015,02,23,04,23,0.90
2015,02,23,04,24,0.90
2015,02,23,04,25,0.90
2015,02,23,04,26,1.00
2015,02,23,04,27,1.00
2015,02,23,04,28,1.10
2015,02,23,04,29,1.10
2015,02,23,04,30,1.10
2015,02,23,04,31,1.10
2015,02,23,04,32,1.10
2015,02,23,04,33,1.10
2015,02,23,04,34,1.00
2015,02,23,04,35,1.00
2015,02,23,04,36,1.00
2015,02,23,04,37,1.00
2015,02,23,04,38,1.10
2015,02,23,04,39,1.10
2015,02,23,04,40,1.20
2015,02,23,04,41,1.20
2015,02,23,04,42,1.20
2015,02,23,04,43,1.30
2015,02,23,04,44,1.30
2015,02,23,04,45,1.30
2015,02,23,04,46,1.30
2015,02,23,04,47,1.30
2015,02,23,04,48,1.30
2015,02,23,04,49,1.30
2015,02,23,04,50,1.30
2015,02,23,04,51,1.30
2015,02,23,04,52,1.30
2015,02,23,04,53,1.30
2015,02,23,04,54,1.30
2015,02,23,04,55,1.30
2015,02,23,04,56,1.30
2015,02,23,04,57,1.20
2015,02,23,04,58,1.20
2015,02,23,04,59,1.20
2015,02,23,05,00,1.20
2015,02,23,05,01,1.10
2015,02,23,05,02,1.10
2015,02,23,05,03,1.10
2015,02,23,05,04,1.10
2015,02,23,05,05,1.10
2015,02,23,05,06,1.10
2015,02,23,05,07,1.10
2015,02,23,05,08,1.00
2015,02,23,05,09,1.00
2015,02,23,05,10,0.90
2015,02,23,05,11,0.90
2015,02,23,05,12,0.80
2015,02,23,05,13,0.80
2015,02,23,05,14,0.80
2015,02,23,05,15,0.80
2015,02,23,05,16,0.80
2015,02,23,05,17,0.80
2015,02,23,05,18,0.80
2015,02,23,05,19,0.80
2015,02,23,05,20,0.80
2015,02,23,05,21,0.80
2015,02,23,05,22,0.90
2015,02,23,05,23,0.90
2015,02,23,05,24,0.90
2015,02,23,05,25,0.90
2015,02,23,05,26,0.90
2015,02,23,05,27,0.90
2015,02,23,05,28,0.90
2015,02,23,05,29,0.90
2015,02,23,05,30,0.90
2015,02,23,05,31,0.90
2015,02,23,05,32,0.90
2015,02,23,05,33,0.90
2015,02,23,05,34,1.00
2015,02,23,05,35,1.00
2015,02,23,05,36,1.00
2015,02,23,05,37,1.00
2015,02,23,05,38,1.10
2015,02,23,05,39,1.10
2015,02,23,05,40,1.10
2015,02,23,05,41,1.10
2015,02,23,05,42,1.10
2015,02,23,05,43,1.10
2015,02,23,05,44,1.20
2015,02,23,05,45,1.20
2015,02,23,05,46,1.20
2015,02,23,05,47,1.20
2015,02,23,05,48,1.20
2015,02,23,05,49,1.20
2015,02,23,05,50,1.20
2015,02,23,05,51,1.10
2015,02,23,05,52,1.20
2015,02,23,05,53,1.20
2015,02,23,05,54,1.20
2015,02,23,05,55,1.20
2015,02,23,05,56,1.20
2015,02,23,05,57,1.10
2015,02,23,05,58,1.10
2015,02,23,05,59,1.10
2015,02,23,06,00,1.20
2015,02,23,06,01,1.20
2015,02,23,06,02,1.20
2015,02,23,06,03,1.20
2015,02,23,06,04,1.20
2015,02,23,06,05,1.20
2015,02,23,06,06,1.20
2015,02,23,06,07,1.10
2015,02,23,06,08,1.10
2015,02,23,06,09,1.10
2015,02,23,06,10,1.10
2015,02,23,06,11,1.10
2015,02,23,06,12,1.10
2015,02,23,06,13,1.10
2015,02,23,06,14,1.00
2015,02,23,06,15,1.00
2015,02,23,06,16,1.00
2015,02,23,06,17,1.00
2015,02,23,06,18,0.90
2015,02,23,06,19,0.90
2015,02,23,06,20,0.90
2015,02,23,06,21,0.90
2015,02,23,06,22,0.90
2015,02,23,06,23,0.90
2015,02,23,06,24,0.90
2015,02,23,06,25,0.90
2015,02,23,06,26,0.90
2015,02,23,06,27,1.00
2015,02,23,06,28,1.00
2015,02,23,06,29,1.00
2015,02,23,06,30,1.00
2015,02,23,06,31,1.00
2015,02,23,06,32,1.00
2015,02,23,06,33,1.00
2015,02,23,06,34,1.00
2015,02,23,06,35,1.00
2015,02,23,06,36,1.00
2015,02,23,06,37,1.00
2015,02,23,06,38,1.00
2015,02,23,06,39,1.00
2015,02,23,06,40,1.00
2015,02,23,06,41,1.00
2015,02,23,06,42,1.10
2015,02,23,06,43,1.10
2015,02,23,06,44,1.10
2015,02,23,06,45,1.10
2015,02,23,06,46,1.10
2015,02,23,06,47,1.10
2015,02,23,06,48,1.10
2015,02,23,06,49,1.00
2015,02,23,06,50,1.00
2015,02,23,06,51,1.00
2015,02,23,06,52,1.00
2015,02,23,06,53,1.10
2015,02,23,06,54,1.10
2015,02,23,06,55,1.10
2015,02,23,06,56,1.20
2015,02,23,06,57,1.20
2015,02,23,06,58,1.20
2015,02,23,06,59,1.20
2015,02,23,07,00,1.20
2015,02,23,07,01,1.30
2015,02,23,07,02,1.30
2015,02,23,07,03,1.30
2015,02,23,07,04,1.30
2015,02,23,07,05,1.40
2015,02,23,07,06,1.50
2015,02,23,07,07,1.50
2015,02,23,07,08,1.50
2015,02,23,07,09,1.50
2015,02,23,07,10,1.50
2015,02,23,07,11,1.50
2015,02,23,07,12,1.40
2015,02,23,07,13,1.40
2015,02,23,07,14,1.30
2015,02,23,07,15,1.30
2015,02,23,07,16,1.30
2015,02,23,07,17,1.30
2015,02,23,07,18,1.20
2015,02,23,07,19,1.20
2015,02,23,07,20,1.20
2015,02,23,07,21,1.30
2015,02,23,07,22,1.30
2015,02,23,07,23,1.30
2015,02,23,07,24,1.30
2015,02,23,07,25,1.30
2015,02,23,07,26,1.40
2015,02,23,07,27,1.50
2015,02,23,07,28,1.50
2015,02,23,07,29,1.60
2015,02,23,07,30,1.60
2015,02,23,07,31,1.70
2015,02,23,07,32,1.70
2015,02,23,07,33,1.80
2015,02,23,07,34,1.80
2015,02,23,07,35,1.90
2015,02,23,07,36,2.00
2015,02,23,07,37,2.00
2015,02,23,07,38,2.10
2015,02,23,07,39,2.20
2015,02,23,07,40,2.20
2015,02,23,07,41,2.30
2015,02,23,07,42,2.40
2015,02,23,07,43,2.50
2015,02,23,07,44,2.50
2015,02,23,07,45,2.60
2015,02,23,07,46,2.60
2015,02,23,07,47,2.60
2015,02,23,07,48,2.60
2015,02,23,07,49,2.60
2015,02,23,07,50,2.60
2015,02,23,07,51,2.60
2015,02,23,07,52,2.70
2015,02,23,07,53,2.70
2015,02,23,07,54,2.80
2015,02,23,07,55,2.90
2015,02,23,07,56,2.90
2015,02,23,07,57,3.00
2015,02,23,07,58,3.10
2015,02,23,07,59,3.20
2015,02,23,08,00,3.30
2015,02,23,08,01,3.40
2015,02,23,08,02,3.50
2015,02,23,08,03,3.50
2015,02,23,08,04,3.60
2015,02,23,08,05,3.70
2015,02,23,08,06,3.80
2015,02,23,08,07,3.90
2015,02,23,08,08,4.00
2015,02,23,08,09,4.00
2015,02,23,08,10,4.10
2015,02,23,08,11,4.20
2015,02,23,08,12,4.20
2015,02,23,08,13,4.20
2015,02,23,08,14,4.30
2015,02,23,08,15,4.30
2015,02,23,08,16,4.40
2015,02,23,08,17,4.40
2015,02,23,08,18,4.50
2015,02,23,08,19,4.50
2015,02,23,08,20,4.50
2015,02,23,08,21,4.60
2015,02,23,08,22,4.60
2015,02,23,08,23,4.70
2015,02,23,08,24,4.70
2015,02,23,08,25,4.80
2015,02,23,08,26,4.90
2015,02,23,08,27,5.00
2015,02,23,08,28,5.10
2015,02,23,08,29,5.20
2015,02,23,08,30,5.30
2015,02,23,08,31,5.40
2015,02,23,08,32,5.60
2015,02,23,08,33,5.70
2015,02,23,08,34,5.90
2015,02,23,08,35,6.10
2015,02,23,08,36,6.20
2015,02,23,08,37,6.30
2015,02,23,08,38,6.40
2015,02,23,08,39,6.40
2015,02,23,08,40,6.40
2015,02,23,08,41,6.50
2015,02,23,08,42,6.60
2015,02,23,08,43,6.60
2015,02,23,08,44,6.60
2015,02,23,08,45,6.60
2015,02,23,08,46,6.60
2015,02,23,08,47,6.60
2015,02,23,08,48,6.60
2015,02,23,08,49,6.70
2015,02,23,08,50,6.70
2015,02,23,08,51,6.70
2015,02,23,08,52,6.80
2015,02,23,08,53,6.80
2015,02,23,08,54,6.90
2015,02,23,08,55,6.90
2015,02,23,08,56,7.00
2015,02,23,08,57,7.00
2015,02,23,08,58,7.10
2015,02,23,08,59,7.20
2015,02,23,09,00,7.20
2015,02,23,09,01,7.30
2015,02,23,09,02,7.30
2015,02,23,09,03,7.30
2015,02,23,09,04,7.40
2015,02,23,09,05,7.40
2015,02,23,09,06,7.40
2015,02,23,09,07,7.40
2015,02,23,09,08,7.50
2015,02,23,09,09,7.50
2015,02,23,09,10,7.60
2015,02,23,09,11,7.70
2015,02,23,09,12,7.80
2015,02,23,09,13,7.80
2015,02,23,09,14,7.90
2015,02,23,09,15,7.90
2015,02,23,09,16,8.00
2015,02,23,09,17,8.20
2015,02,23,09,18,8.20
2015,02,23,09,19,8.30
2015,02,23,09,20,8.40
2015,02,23,09,21,8.50
2015,02,23,09,22,8.50
2015,02,23,09,23,8.50
2015,02,23,09,24,8.60
2015,02,23,09,25,8.70
2015,02,23,09,26,8.70
2015,02,23,09,27,8.80
2015,02,23,09,28,8.80
2015,02,23,09,29,8.80
2015,02,23,09,30,8.80
2015,02,23,09,31,8.70
2015,02,23,09,32,8.70
2015,02,23,09,33,8.60
2015,02,23,09,34,8.60
2015,02,23,09,35,8.50
2015,02,23,09,36,8.50
2015,02,23,09,37,8.50
2015,02,23,09,38,8.50
2015,02,23,09,39,8.50
2015,02,23,09,40,8.50
2015,02,23,09,41,8.50
2015,02,23,09,42,8.50
2015,02,23,09,43,8.40
2015,02,23,09,44,8.50
2015,02,23,09,45,8.50
2015,02,23,09,46,8.50
2015,02,23,09,47,8.60
2015,02,23,09,48,8.70
2015,02,23,09,49,8.70
2015,02,23,09,50,8.80
2015,02,23,09,51,8.90
2015,02,23,09,52,9.00
2015,02,23,09,53,9.00
2015,02,23,09,54,8.90
2015,02,23,09,55,8.90
2015,02,23,09,56,8.90
2015,02,23,09,57,8.90
2015,02,23,09,58,8.80
2015,02,23,09,59,8.80
2015,02,23,10,00,8.70
2015,02,23,10,01,8.70
2015,02,23,10,02,8.70
2015,02,23,10,03,8.70
2015,02,23,10,04,8.70
2015,02,23,10,05,8.70
2015,02,23,10,06,8.70
2015,02,23,10,07,8.70
2015,02,23,10,08,8.70
2015,02,23,10,09,8.70
2015,02,23,10,10,8.70
2015,02,23,10,11,8.70
2015,02,23,10,12,8.80
2015,02,23,10,13,8.80
2015,02,23,10,14,8.80
2015,02,23,10,15,8.80
2015,02,23,10,16,8.80
2015,02,23,10,17,8.90
2015,02,23,10,18,8.90
2015,02,23,10,19,8.90
2015,02,23,10,20,9.00
2015,02,23,10,21,9.00
2015,02,23,10,22,9.10
2015,02,23,10,23,9.20
2015,02,23,10,24,9.30
2015,02,23,10,25,9.30
2015,02,23,10,26,9.40
2015,02,23,10,27,9.50
2015,02,23,10,28,9.60
2015,02,23,10,29,9.60
2015,02,23,10,30,9.70
2015,02,23,10,31,9.70
2015,02,23,10,32,9.70
2015,02,23,10,33,9.80
2015,02,23,10,34,9.90
2015,02,23,10,35,9.90
2015,02,23,10,36,9.90
2015,02,23,10,37,9.90
2015,02,23,10,38,9.90
2015,02,23,10,39,9.90
2015,02,23,10,40,9.90
2015,02,23,10,41,10.00
2015,02,23,10,42,10.10
2015,02,23,10,43,10.10
2015,02,23,10,44,10.10
2015,02,23,10,45,10.10
2015,02,23,10,46,10.10
2015,02,23,10,47,10.10
2015,02,23,10,48,10.00
2015,02,23,10,49,9.90
2015,02,23,10,50,9.90
2015,02,23,10,51,9.90
2015,02,23,10,52,9.90
2015,02,23,10,53,9.90
2015,02,23,10,54,9.90
2015,02,23,10,55,9.70
2015,02,23,10,56,9.70
2015,02,23,10,57,9.60
2015,02,23,10,58,9.50
2015,02,23,10,59,9.40
2015,02,23,11,00,9.40
2015,02,23,11,01,9.30
2015,02,23,11,02,9.30
2015,02,23,11,03,9.40
2015,02,23,11,04,9.40
2015,02,23,11,05,9.50
2015,02,23,11,06,9.40
2015,02,23,11,07,9.40
2015,02,23,11,08,9.50
2015,02,23,11,09,9.60
2015,02,23,11,10,9.60
2015,02,23,11,11,9.70
2015,02,23,11,12,9.70
2015,02,23,11,13,9.80
2015,02,23,11,14,9.90
2015,02,23,11,15,9.90
2015,02,23,11,16,10.00
2015,02,23,11,17,10.10
2015,02,23,11,18,10.10
2015,02,23,11,19,10.10
2015,02,23,11,20,10.10
2015,02,23,11,21,10.10
2015,02,23,11,22,10.10
2015,02,23,11,23,10.10
2015,02,23,11,24,10.00
2015,02,23,11,25,9.90
2015,02,23,11,26,9.90
2015,02,23,11,27,9.90
2015,02,23,11,28,10.00
2015,02,23,11,29,10.10
2015,02,23,11,30,10.20
2015,02,23,11,31,10.30
2015,02,23,11,32,10.30
2015,02,23,11,33,10.40
2015,02,23,11,34,10.30
2015,02,23,11,35,10.30
2015,02,23,11,36,10.40
2015,02,23,11,37,10.40
2015,02,23,11,38,10.40
2015,02,23,11,39,10.40
2015,02,23,11,40,10.40
2015,02,23,11,41,10.40
2015,02,23,11,42,10.50
2015,02,23,11,43,10.60
2015,02,23,11,44,10.60
2015,02,23,11,45,10.60
2015,02,23,11,46,10.60
2015,02,23,11,47,10.60
2015,02,23,11,48,10.70
2015,02,23,11,49,10.70
2015,02,23,11,50,10.70
2015,02,23,11,51,10.80
2015,02,23,11,52,10.70
2015,02,23,11,53,10.70
2015,02,23,11,54,10.70
2015,02,23,11,55,10.70
2015,02,23,11,56,10.70
2015,02,23,11,57,10.70
2015,02,23,11,58,10.70
2015,02,23,11,59,10.60
2015,02,23,12,00,10.50
2015,02,23,12,01,10.40
2015,02,23,12,02,10.40
2015,02,23,12,03,10.30
2015,02,23,12,04,10.20
2015,02,23,12,05,10.10
2015,02,23,12,06,10.10
2015,02,23,12,07,10.10
2015,02,23,12,08,9.90
2015,02,23,12,09,9.90
2015,02,23,12,10,9.80
2015,02,23,12,11,9.70
2015,02,23,12,12,9.70
2015,02,23,12,13,9.70
2015,02,23,12,14,9.60
2015,02,23,12,15,9.60
2015,02,23,12,16,9.60
2015,02,23,12,17,9.60
2015,02,23,12,18,9.60
2015,02,23,12,19,9.60
2015,02,23,12,20,9.60
2015,02,23,12,21,9.60
2015,02,23,12,22,9.70
2015,02,23,12,23,9.70
2015,02,23,12,24,9.70
2015,02,23,12,25,9.70
2015,02,23,12,26,9.70
2015,02,23,12,27,9.70
2015,02,23,12,28,9.70
2015,02,23,12,29,9.80
2015,02,23,12,30,9.80
2015,02,23,12,31,9.80
2015,02,23,12,32,9.80
2015,02,23,12,33,9.90
2015,02,23,12,34,9.90
2015,02,23,12,35,9.90
2015,02,23,12,36,9.80
2015,02,23,12,37,9.70
2015,02,23,12,38,9.70
2015,02,23,12,39,9.70
2015,02,23,12,40,9.60
2015,02,23,12,41,9.60
2015,02,23,12,42,9.60
2015,02,23,12,43,9.60
2015,02,23,12,44,9.60
2015,02,23,12,45,9.50
2015,02,23,12,46,9.50
2015,02,23,12,47,9.50
2015,02,23,12,48,9.60
2015,02,23,12,49,9.60
2015,02,23,12,50,9.60
2015,02,23,12,51,9.70
2015,02,23,12,52,9.70
2015,02,23,12,53,9.70
2015,02,23,12,54,9.90
2015,02,23,12,55,9.90
2015,02,23,12,56,9.90
2015,02,23,12,57,9.80
2015,02,23,12,58,9.80
2015,02,23,12,59,9.80
2015,02,23,13,00,9.80
2015,02,23,13,01,9.90
2015,02,23,13,02,9.90
2015,02,23,13,03,9.90
2015,02,23,13,04,10.00
2015,02,23,13,05,10.10
2015,02,23,13,06,10.10
2015,02,23,13,07,10.10
2015,02,23,13,08,10.20
2015,02,23,13,09,10.30
2015,02,23,13,10,10.40
2015,02,23,13,11,10.50
2015,02,23,13,12,10.40
2015,02,23,13,13,10.20
2015,02,23,13,14,10.10
2015,02,23,13,15,10.00
2015,02,23,13,16,9.90
2015,02,23,13,17,9.80
2015,02,23,13,18,9.70
2015,02,23,13,19,9.60
2015,02,23,13,20,9.50
2015,02,23,13,21,9.50
2015,02,23,13,22,9.40
2015,02,23,13,23,9.30
2015,02,23,13,24,9.30
2015,02,23,13,25,9.30
2015,02,23,13,26,9.30
2015,02,23,13,27,9.30
2015,02,23,13,28,9.30
2015,02,23,13,29,9.30
2015,02,23,13,30,9.30
2015,02,23,13,31,9.30
2015,02,23,13,32,9.30
2015,02,23,13,33,9.30
2015,02,23,13,34,9.20
2015,02,23,13,35,9.20
2015,02,23,13,36,9.20
2015,02,23,13,37,9.20
2015,02,23,13,38,9.20
2015,02,23,13,39,9.20
2015,02,23,13,40,9.20
2015,02,23,13,41,9.20
2015,02,23,13,42,9.20
2015,02,23,13,43,9.10
2015,02,23,13,44,9.00
2015,02,23,13,45,9.00
2015,02,23,13,46,8.90
2015,02,23,13,47,8.90
2015,02,23,13,48,8.90
2015,02,23,13,49,9.00
2015,02,23,13,50,9.00
2015,02,23,13,51,9.00
2015,02,23,13,52,9.10
2015,02,23,13,53,9.10
2015,02,23,13,54,9.20
2015,02,23,13,55,9.20
2015,02,23,13,56,9.20
2015,02,23,13,57,9.20
2015,02,23,13,58,9.30
2015,02,23,13,59,9.30
2015,02,23,14,00,9.40
2015,02,23,14,01,9.40
2015,02,23,14,02,9.40
2015,02,23,14,03,9.40
2015,02,23,14,04,9.50
2015,02,23,14,05,9.40
2015,02,23,14,06,9.40
2015,02,23,14,07,9.40
2015,02,23,14,08,9.30
2015,02,23,14,09,9.30
2015,02,23,14,10,9.20
2015,02,23,14,11,9.20
2015,02,23,14,12,9.20
2015,02,23,14,13,9.20
2015,02,23,14,14,9.20
2015,02,23,14,15,9.20
2015,02,23,14,16,9.20
2015,02,23,14,17,9.20
2015,02,23,14,18,9.10
2015,02,23,14,19,9.00
2015,02,23,14,20,9.00
2015,02,23,14,21,8.90
2015,02,23,14,22,8.90
2015,02,23,14,23,8.90
2015,02,23,14,24,9.00
2015,02,23,14,25,9.00
2015,02,23,14,26,9.00
2015,02,23,14,27,9.10
2015,02,23,14,28,9.10
2015,02,23,14,29,9.10
2015,02,23,14,30,9.20
2015,02,23,14,31,9.20
2015,02,23,14,32,9.20
2015,02,23,14,33,9.30
2015,02,23,14,34,9.30
2015,02,23,14,35,9.20
2015,02,23,14,36,9.30
2015,02,23,14,37,9.30
2015,02,23,14,38,9.30
2015,02,23,14,39,9.30
2015,02,23,14,40,9.30
2015,02,23,14,41,9.30
2015,02,23,14,42,9.30
2015,02,23,14,43,9.20
2015,02,23,14,44,9.20
2015,02,23,14,45,9.20
2015,02,23,14,46,9.20
2015,02,23,14,47,9.20
2015,02,23,14,48,9.20
2015,02,23,14,49,9.20
2015,02,23,14,50,9.20
2015,02,23,14,51,9.20
2015,02,23,14,52,9.20
2015,02,23,14,53,9.20
2015,02,23,14,54,9.20
2015,02,23,14,55,9.20
2015,02,23,14,56,9.20
2015,02,23,14,57,9.30
2015,02,23,14,58,9.30
2015,02,23,14,59,9.40
2015,02,23,15,00,9.40
2015,02,23,15,01,9.40
2015,02,23,15,02,9.40
2015,02,23,15,03,9.50
2015,02,23,15,04,9.50
2015,02,23,15,05,9.50
2015,02,23,15,06,9.60
2015,02,23,15,07,9.50
2015,02,23,15,08,9.50
2015,02,23,15,09,9.60
2015,02,23,15,10,9.60
2015,02,23,15,11,9.60
2015,02,23,15,12,9.50
2015,02,23,15,13,9.50
2015,02,23,15,14,9.50
2015,02,23,15,15,9.50
2015,02,23,15,16,9.60
2015,02,23,15,17,9.60
2015,02,23,15,18,9.70
2015,02,23,15,19,9.60
2015,02,23,15,20,9.60
2015,02,23,15,21,9.70
2015,02,23,15,22,9.70
2015,02,23,15,23,9.70
2015,02,23,15,24,9.70
2015,02,23,15,25,9.70
2015,02,23,15,26,9.70
2015,02,23,15,27,9.70
2015,02,23,15,28,9.70
2015,02,23,15,29,9.70
2015,02,23,15,30,9.70
2015,02,23,15,31,9.70
2015,02,23,15,32,9.70
2015,02,23,15,33,9.70
2015,02,23,15,34,9.70
2015,02,23,15,35,9.80
2015,02,23,15,36,9.80
2015,02,23,15,37,9.80
2015,02,23,15,38,9.80
2015,02,23,15,39,9.70
2015,02,23,15,40,9.70
2015,02,23,15,41,9.70
2015,02,23,15,42,9.60
2015,02,23,15,43,9.60
2015,02,23,15,44,9.60
2015,02,23,15,45,9.60
2015,02,23,15,46,9.60
2015,02,23,15,47,9.60
2015,02,23,15,48,9.60
2015,02,23,15,49,9.60
2015,02,23,15,50,9.60
2015,02,23,15,51,9.60
2015,02,23,15,52,9.60
2015,02,23,15,53,9.60
2015,02,23,15,54,9.50
2015,02,23,15,55,9.50
2015,02,23,15,56,9.40
2015,02,23,15,57,9.40
2015,02,23,15,58,9.40
2015,02,23,15,59,9.30
2015,02,23,16,00,9.30
2015,02,23,16,01,9.40
2015,02,23,16,02,9.30
2015,02,23,16,03,9.30
2015,02,23,16,04,9.30
2015,02,23,16,05,9.30
2015,02,23,16,06,9.30
2015,02,23,16,07,9.30
2015,02,23,16,08,9.40
2015,02,23,16,09,9.40
2015,02,23,16,10,9.50
2015,02,23,16,11,9.50
2015,02,23,16,12,9.50
2015,02,23,16,13,9.50
2015,02,23,16,14,9.50
2015,02,23,16,15,9.50
2015,02,23,16,16,9.60
2015,02,23,16,17,9.60
2015,02,23,16,18,9.60
2015,02,23,16,19,9.60
2015,02,23,16,20,9.60
2015,02,23,16,21,9.60
2015,02,23,16,22,9.60
2015,02,23,16,23,9.60
2015,02,23,16,24,9.50
2015,02,23,16,25,9.50
2015,02,23,16,26,9.40
2015,02,23,16,27,9.40
2015,02,23,16,28,9.40
2015,02,23,16,29,9.40
2015,02,23,16,30,9.40
2015,02,23,16,31,9.40
2015,02,23,16,32,9.40
2015,02,23,16,33,9.40
2015,02,23,16,34,9.40
2015,02,23,16,35,9.40
2015,02,23,16,36,9.40
2015,02,23,16,37,9.40
2015,02,23,16,38,9.30
2015,02,23,16,39,9.30
2015,02,23,16,40,9.30
2015,02,23,16,41,9.30
2015,02,23,16,42,9.30
2015,02,23,16,43,9.20
2015,02,23,16,44,9.20
2015,02,23,16,45,9.20
2015,02,23,16,46,9.20
2015,02,23,16,47,9.20
2015,02,23,16,48,9.20
2015,02,23,16,49,9.10
2015,02,23,16,50,9.10
2015,02,23,16,51,9.10
2015,02,23,16,52,9.10
2015,02,23,16,53,9.10
2015,02,23,16,54,9.00
2015,02,23,16,55,9.00
2015,02,23,16,56,8.90
2015,02,23,16,57,8.90
2015,02,23,16,58,8.80
2015,02,23,16,59,8.80
2015,02,23,17,00,8.80
2015,02,23,17,01,8.80
2015,02,23,17,02,8.80
2015,02,23,17,03,8.80
2015,02,23,17,04,8.70
2015,02,23,17,05,8.70
2015,02,23,17,06,8.70
2015,02,23,17,07,8.70
2015,02,23,17,08,8.70
2015,02,23,17,09,8.70
2015,02,23,17,10,8.70
2015,02,23,17,11,8.70
2015,02,23,17,12,8.70
2015,02,23,17,13,8.70
2015,02,23,17,14,8.70
2015,02,23,17,15,8.70
2015,02,23,17,16,8.70
2015,02,23,17,17,8.70
2015,02,23,17,18,8.70
2015,02,23,17,19,8.70
2015,02,23,17,20,8.70
2015,02,23,17,21,8.70
2015,02,23,17,22,8.70
2015,02,23,17,23,8.70
2015,02,23,17,24,8.70
2015,02,23,17,25,8.70
2015,02,23,17,26,8.70
2015,02,23,17,27,8.70
2015,02,23,17,28,8.70
2015,02,23,17,29,8.70
2015,02,23,17,30,8.80
2015,02,23,17,31,8.80
2015,02,23,17,32,8.80
2015,02,23,17,33,8.80
2015,02,23,17,34,8.80
2015,02,23,17,35,8.70
2015,02,23,17,36,8.70
2015,02,23,17,37,8.70
2015,02,23,17,38,8.70
2015,02,23,17,39,8.70
2015,02,23,17,40,8.70
2015,02,23,17,41,8.70
2015,02,23,17,42,8.70
2015,02,23,17,43,8.70
2015,02,23,17,44,8.70
2015,02,23,17,45,8.70
2015,02,23,17,46,8.60
2015,02,23,17,47,8.60
2015,02,23,17,48,8.50
2015,02,23,17,49,8.50
2015,02,23,17,50,8.50
2015,02,23,17,51,8.40
2015,02,23,17,52,8.40
2015,02,23,17,53,8.40
2015,02,23,17,54,8.30
2015,02,23,17,55,8.30
2015,02,23,17,56,8.30
2015,02,23,17,57,8.30
2015,02,23,17,58,8.30
2015,02,23,17,59,8.30
2015,02,23,18,00,8.20
2015,02,23,18,01,8.20
2015,02,23,18,02,8.20
2015,02,23,18,03,8.20